Location: Grossmotten
(48.5500°N, 15.3833°E)
Time: 02:20:12
(UTC+00:00)

SL-27 R/B - Pass Details

Date: 15 November 2019
Orbit: 420 x 472 km, 74.7° (Epoch: 12 December)

Event Time Altitude Azimuth Distance (km) Brightness Sun altitude
Exits shadow 04:23:17 40° 241° (WSW) 641 2.8 -16.9°
Maximum altitude 04:24:10 55° 294° (WNW) 517 2.3 -16.7°
Drops below altitude 10° 04:27:26 10° 14° (NNE) 1,518 5.1 -16.2°
Sets 04:29:32 0° 19° (NNE) 2,391 6.2 -15.9°
